Location: Тутаев
(57.8681°N, 39.5425°E)
Time: 01:31:16
(UTC+03:00)

ISS - Visible Passes

Search period start: 23 July 2019 00:00
Search period end: 02 August 2019 00:00
Orbit: 409 x 418 km, 51.6° (Epoch: 22 July)

Date Brightness Start Highest point End Pass type
(mag) Time Alt. Az. Time Alt. Az. Time Alt. Az.
23 Jul -2.4 00:05:25 10° WSW 00:08:00 21° SSW 00:08:25 20° S visible
23 Jul -2.6 23:16:07 10° WSW 23:18:53 24° SSW 23:20:24 17° SSE visible
24 Jul -2.7 22:26:51 10° WSW 22:29:44 26° S 22:32:27 11° SE visible
25 Jul -1.8 00:03:47 10° WSW 00:05:15 14° SW 00:05:15 14° SW visible
25 Jul -2.1 23:14:14 10° WSW 23:16:36 18° SSW 23:17:21 17° S visible
26 Jul -2.3 22:24:49 10° WSW 22:27:28 22° SSW 22:29:31 13° SSE visible
27 Jul -1.6 23:12:50 10° SW 23:14:11 12° SSW 23:14:31 12° SSW visible
28 Jul -1.8 22:23:01 10° WSW 22:25:05 15° SSW 22:26:43 12° S visible
